Simultaneous Nadir Overpasses (SNOs) Predictions

Prediction of SNOs between METOP-A and NOAA-19 Satellite Orbit:

Table of predicted SNOs for the next 14.0 days since TLE Epoch: 5/1/2020
Index Date (METOP-A) Time (METOP-A) Lat,Lon (METOP-A) SZA (METOP-A ) Date (NOAA-19) Time (NOAA-19) Lat,Lon (NOAA-19) SZA (NOAA-19 ) Distance(km) Time Diff (sec)
1 05/11/2020 08:21:15 80.47, 68.22 62.71 05/11/2020 08:20:05 80.48, 68.35 62.71 2.50 70
2 05/11/2020 09:11:56 -80.49,-124.29 117.28 05/11/2020 09:11:00 -80.48,-124.43 117.31 2.72 56
3 05/11/2020 10:02:36 80.49, 43.06 62.71 05/11/2020 10:02:05 80.47, 43.07 62.69 2.40 31
4 05/11/2020 10:53:18 -80.48,-149.77 117.32 05/11/2020 10:53:00 -80.47,-149.72 117.33 1.10 18
5 05/11/2020 11:43:58 80.48, 17.59 62.68 05/11/2020 11:44:06 80.47, 17.44 62.67 2.81 8
6 05/11/2020 12:34:40 -80.47,-175.24 117.35 05/11/2020 12:35:01 -80.48,-175.35 117.34 2.32 21
7 05/11/2020 13:25:20 80.47, -7.89 62.64 05/11/2020 13:26:06 80.46, -7.85 62.65 0.82 46




NCC Satellite Simultaneous Nadir Overpasses (SNOs) Prediction Service
